DLH3PK EDDM-EDDH

Flight info

Callsign DLH3PK
Flight time 0h 59m
Altitude 34000
Route INPUD3Q INPUD Y102 UPALA M726 NARUS DCT ABGUS DCT DIRBO T902 RARUP RARUP6A
Aircraft A321/M-SDE3FGHIRWY/LB1

Departure

Time 2026-05-08 05:54
Airport Munich Airport (EDDM)

Arrival

Time 2026-05-08 06:54
Airport Hamburg Helmut Schmidt Airport (EDDH)
Time Latitude Longitude Altitude Speed Heading
2026-05-08 05:41 48.35289 11.80289 1485 ft 0 kts 83°
2026-05-08 05:43 48.35289 11.80286 1485 ft 2 kts 83°
2026-05-08 05:43 48.35286 11.80247 1485 ft 4 kts 83°
2026-05-08 05:43 48.35283 11.80216 1485 ft 4 kts 72°
2026-05-08 05:43 48.35271 11.80184 1473 ft 4 kts 29°
2026-05-08 05:44 48.35250 11.80179 1485 ft 4 kts 353°
2026-05-08 05:44 48.35235 11.80181 1485 ft 0 kts 353°
2026-05-08 05:47 48.35272 11.80175 1485 ft 11 kts 353°
2026-05-08 05:47 48.35377 11.80154 1485 ft 19 kts 348°
2026-05-08 05:47 48.35520 11.80120 1485 ft 22 kts 354°
2026-05-08 05:47 48.35671 11.80094 1485 ft 21 kts 351°
2026-05-08 05:48 48.35806 11.80055 1485 ft 13 kts 340°
2026-05-08 05:48 48.35824 11.79931 1485 ft 14 kts 262°
2026-05-08 05:48 48.35811 11.79779 1485 ft 16 kts 263°
2026-05-08 05:48 48.35799 11.79608 1485 ft 17 kts 263°
2026-05-08 05:49 48.35861 11.79518 1485 ft 14 kts 351°
2026-05-08 05:49 48.35966 11.79501 1476 ft 16 kts 353°
2026-05-08 05:49 48.36083 11.79481 1477 ft 18 kts 353°
2026-05-08 05:49 48.36199 11.79442 1478 ft 14 kts 311°
2026-05-08 05:50 48.36199 11.79290 1478 ft 16 kts 263°
2026-05-08 05:50 48.36186 11.79118 1477 ft 17 kts 263°
2026-05-08 05:50 48.36171 11.78927 1485 ft 19 kts 263°
2026-05-08 05:50 48.36155 11.78719 1485 ft 21 kts 263°
2026-05-08 05:51 48.36138 11.78495 1474 ft 22 kts 263°
2026-05-08 05:51 48.36119 11.78256 1480 ft 24 kts 263°
2026-05-08 05:51 48.36100 11.78004 1480 ft 25 kts 263°
2026-05-08 05:51 48.36080 11.77741 1485 ft 26 kts 263°
2026-05-08 05:52 48.36059 11.77468 1485 ft 27 kts 263°
2026-05-08 05:52 48.36038 11.77202 1485 ft 22 kts 263°
2026-05-08 05:52 48.36007 11.77023 1476 ft 17 kts 262°
2026-05-08 05:52 48.36004 11.76848 1473 ft 16 kts 301°
2026-05-08 05:53 48.36112 11.76802 1477 ft 17 kts 353°
2026-05-08 05:53 48.36231 11.76826 1474 ft 18 kts 32°
2026-05-08 05:53 48.36298 11.77008 1481 ft 25 kts 83°
2026-05-08 05:53 48.36344 11.77622 1486 ft 97 kts 83°
2026-05-08 05:54 48.36449 11.78984 1475 ft 161 kts 83°
2026-05-08 05:54 48.36589 11.80703 2091 ft 166 kts 82°
2026-05-08 05:54 48.36720 11.82429 2857 ft 170 kts 83°
2026-05-08 05:54 48.36857 11.84301 3252 ft 191 kts 83°
2026-05-08 05:55 48.37238 11.86316 3560 ft 214 kts 55°
2026-05-08 05:55 48.38500 11.87662 3806 ft 239 kts 14°
2026-05-08 05:55 48.40247 11.87785 4273 ft 261 kts 353°
2026-05-08 05:55 48.41934 11.86779 5021 ft 268 kts 320°
2026-05-08 05:56 48.43098 11.84584 5829 ft 271 kts 302°
2026-05-08 05:56 48.44204 11.82263 6667 ft 275 kts 308°
2026-05-08 05:56 48.45420 11.80025 7488 ft 278 kts 310°
2026-05-08 05:56 48.46692 11.77807 8297 ft 281 kts 310°
2026-05-08 05:57 48.47990 11.75579 9095 ft 284 kts 310°
2026-05-08 05:57 48.49298 11.73330 9914 ft 286 kts 310°
2026-05-08 05:57 48.50606 11.71059 10723 ft 287 kts 309°
2026-05-08 05:57 48.51912 11.68771 11541 ft 288 kts 309°
2026-05-08 05:58 48.53217 11.66479 12330 ft 288 kts 308°
2026-05-08 05:58 48.54526 11.64178 13099 ft 289 kts 308°
2026-05-08 05:58 48.55846 11.61865 13794 ft 293 kts 310°
2026-05-08 05:58 48.57404 11.59842 14469 ft 300 kts 324°
2026-05-08 05:59 48.59325 11.58353 14709 ft 324 kts 336°
2026-05-08 05:59 48.61497 11.57099 14882 ft 343 kts 336°
2026-05-08 05:59 48.63757 11.55807 15359 ft 350 kts 336°
2026-05-08 05:59 48.66049 11.54501 15942 ft 355 kts 336°
2026-05-08 06:00 48.68373 11.53173 16537 ft 358 kts 336°
2026-05-08 06:00 48.70714 11.51830 17137 ft 362 kts 336°
2026-05-08 06:00 48.73083 11.50463 17727 ft 365 kts 336°
2026-05-08 06:00 48.75467 11.49085 18284 ft 368 kts 336°
2026-05-08 06:01 48.77875 11.47689 18814 ft 371 kts 336°
2026-05-08 06:01 48.80292 11.46281 19357 ft 374 kts 336°
2026-05-08 06:01 48.82729 11.44857 19907 ft 377 kts 336°
2026-05-08 06:01 48.85184 11.43422 20440 ft 379 kts 336°
2026-05-08 06:02 48.87652 11.41984 20946 ft 382 kts 336°
2026-05-08 06:02 48.90144 11.40538 21450 ft 385 kts 336°
2026-05-08 06:02 48.92659 11.39076 21925 ft 387 kts 336°
2026-05-08 06:02 48.95181 11.37607 22406 ft 390 kts 336°
2026-05-08 06:03 48.97717 11.36121 22853 ft 392 kts 336°
2026-05-08 06:03 49.00237 11.34638 23292 ft 394 kts 336°
2026-05-08 06:03 49.02843 11.33105 23731 ft 397 kts 336°
2026-05-08 06:03 49.05421 11.31589 24164 ft 399 kts 336°
2026-05-08 06:04 49.08024 11.30061 24597 ft 402 kts 336°
2026-05-08 06:04 49.10606 11.28542 25028 ft 404 kts 336°
2026-05-08 06:04 49.13230 11.26996 25450 ft 406 kts 336°
2026-05-08 06:04 49.15870 11.25438 25854 ft 408 kts 336°
2026-05-08 06:05 49.18524 11.23872 26255 ft 410 kts 336°
2026-05-08 06:05 49.21284 11.22655 26632 ft 416 kts 346°
2026-05-08 06:05 49.24179 11.22160 26995 ft 422 kts 355°
2026-05-08 06:05 49.27127 11.22180 27351 ft 425 kts 357°
2026-05-08 06:06 49.30098 11.22212 27721 ft 427 kts 357°
2026-05-08 06:06 49.33080 11.22239 28081 ft 430 kts 357°
2026-05-08 06:06 49.36074 11.22263 28431 ft 431 kts 357°
2026-05-08 06:06 49.39082 11.22283 28778 ft 433 kts 356°
2026-05-08 06:07 49.42109 11.22307 29121 ft 435 kts 357°
2026-05-08 06:07 49.45149 11.22332 29456 ft 437 kts 356°
2026-05-08 06:07 49.48199 11.22356 29792 ft 439 kts 356°
2026-05-08 06:07 49.51263 11.22380 30120 ft 441 kts 356°
2026-05-08 06:08 49.54340 11.22404 30435 ft 443 kts 356°
2026-05-08 06:08 49.57428 11.22430 30741 ft 445 kts 356°
2026-05-08 06:08 49.60528 11.22445 31030 ft 447 kts 356°
2026-05-08 06:08 49.63644 11.22446 31292 ft 449 kts 356°
2026-05-08 06:09 49.66769 11.22441 31557 ft 450 kts 356°
2026-05-08 06:09 49.69915 11.22438 31797 ft 451 kts 356°
2026-05-08 06:09 49.73050 11.22437 32109 ft 451 kts 356°
2026-05-08 06:09 49.76183 11.22439 32431 ft 450 kts 356°
2026-05-08 06:10 49.79320 11.22448 32753 ft 450 kts 356°
2026-05-08 06:10 49.82452 11.22471 33077 ft 449 kts 356°
2026-05-08 06:10 49.85574 11.22500 33376 ft 448 kts 356°
2026-05-08 06:10 49.88655 11.22531 33670 ft 448 kts 356°
2026-05-08 06:11 49.91776 11.22559 33971 ft 448 kts 356°
2026-05-08 06:11 49.94888 11.22581 34088 ft 445 kts 356°
2026-05-08 06:11 49.97953 11.22596 34109 ft 435 kts 356°
2026-05-08 06:12 50.03966 11.22620 34110 ft 430 kts 356°
2026-05-08 06:12 50.09936 11.22653 34108 ft 427 kts 356°
2026-05-08 06:13 50.15881 11.22684 34109 ft 427 kts 356°
2026-05-08 06:13 50.21827 11.22722 34110 ft 427 kts 356°
2026-05-08 06:14 50.27772 11.22754 34115 ft 427 kts 356°
2026-05-08 06:14 50.33726 11.22785 34116 ft 428 kts 356°
2026-05-08 06:15 50.39645 11.22272 34121 ft 425 kts 351°
2026-05-08 06:15 50.45538 11.21382 34120 ft 426 kts 351°
2026-05-08 06:16 50.51440 11.20496 34129 ft 426 kts 351°
2026-05-08 06:16 50.57349 11.19600 34140 ft 427 kts 351°
2026-05-08 06:17 50.66220 11.18249 34148 ft 426 kts 351°
2026-05-08 06:17 50.72137 11.17484 34150 ft 427 kts 353°
2026-05-08 06:18 50.78078 11.16920 34153 ft 427 kts 353°
2026-05-08 06:18 50.84016 11.16369 34152 ft 427 kts 353°
2026-05-08 06:19 50.89945 11.15757 34155 ft 427 kts 353°
2026-05-08 06:19 50.95872 11.15122 34156 ft 427 kts 353°
2026-05-08 06:20 51.01792 11.14494 34155 ft 426 kts 353°
2026-05-08 06:20 51.07707 11.13868 34153 ft 426 kts 353°
2026-05-08 06:21 51.13625 11.13236 34150 ft 426 kts 353°
2026-05-08 06:21 51.19535 11.12610 34150 ft 426 kts 353°
2026-05-08 06:22 51.25449 11.11982 34152 ft 426 kts 353°
2026-05-08 06:22 51.31372 11.11348 34155 ft 426 kts 353°
2026-05-08 06:23 51.37287 11.10700 34157 ft 426 kts 353°
2026-05-08 06:23 51.43204 11.10067 34160 ft 426 kts 353°
2026-05-08 06:24 51.49127 11.09432 34166 ft 426 kts 353°
2026-05-08 06:24 51.55042 11.08791 34168 ft 426 kts 353°
2026-05-08 06:25 51.60958 11.08158 34173 ft 426 kts 353°
2026-05-08 06:25 51.66887 11.07510 34177 ft 427 kts 353°
2026-05-08 06:26 51.72767 11.06856 34185 ft 426 kts 353°
2026-05-08 06:26 51.78686 11.06218 34184 ft 426 kts 353°
2026-05-08 06:27 51.84602 11.05582 34183 ft 426 kts 353°
2026-05-08 06:27 51.90499 11.04753 34183 ft 425 kts 351°
2026-05-08 06:28 51.96349 11.03457 34181 ft 423 kts 349°
2026-05-08 06:28 52.02174 11.02063 34176 ft 423 kts 349°
2026-05-08 06:29 52.07036 11.00972 34169 ft 424 kts 350°
2026-05-08 06:29 52.12891 10.99733 34167 ft 424 kts 350°
2026-05-08 06:30 52.18750 10.98502 34165 ft 425 kts 351°
2026-05-08 06:30 52.24611 10.97239 34167 ft 425 kts 351°
2026-05-08 06:31 52.30479 10.95972 34163 ft 425 kts 351°
2026-05-08 06:31 52.36343 10.94704 34161 ft 426 kts 351°
2026-05-08 06:32 52.42217 10.93434 34166 ft 426 kts 351°
2026-05-08 06:32 52.48097 10.92160 33975 ft 426 kts 350°
2026-05-08 06:33 52.51021 10.91523 33725 ft 423 kts 351°
2026-05-08 06:33 52.53932 10.90881 33475 ft 420 kts 351°
2026-05-08 06:33 52.56829 10.90236 33225 ft 419 kts 351°
2026-05-08 06:33 52.59709 10.89592 32975 ft 417 kts 351°
2026-05-08 06:34 52.62571 10.88956 32709 ft 413 kts 351°
2026-05-08 06:34 52.65402 10.88336 32257 ft 408 kts 351°
2026-05-08 06:34 52.68207 10.87726 31798 ft 404 kts 351°
2026-05-08 06:34 52.70983 10.87121 31343 ft 401 kts 351°
2026-05-08 06:35 52.73732 10.86521 30886 ft 397 kts 351°
2026-05-08 06:35 52.76454 10.85924 30463 ft 393 kts 351°
2026-05-08 06:35 52.79149 10.85327 30032 ft 389 kts 349°
2026-05-08 06:35 52.81763 10.84323 29604 ft 383 kts 339°
2026-05-08 06:36 52.84186 10.82615 29192 ft 376 kts 329°
2026-05-08 06:36 52.86368 10.80284 28775 ft 371 kts 320°
2026-05-08 06:36 52.88364 10.77625 28391 ft 367 kts 320°
2026-05-08 06:36 52.90345 10.74996 28011 ft 362 kts 320°
2026-05-08 06:37 52.92299 10.72409 27627 ft 357 kts 320°
2026-05-08 06:37 52.94231 10.69859 27264 ft 353 kts 320°
2026-05-08 06:37 52.96142 10.67336 26912 ft 348 kts 320°
2026-05-08 06:37 52.98030 10.64837 26559 ft 347 kts 320°
2026-05-08 06:38 52.99910 10.62345 26193 ft 345 kts 320°
2026-05-08 06:38 53.01783 10.59857 25824 ft 343 kts 320°
2026-05-08 06:38 53.03642 10.57380 25455 ft 342 kts 320°
2026-05-08 06:38 53.05492 10.54911 25075 ft 340 kts 320°
2026-05-08 06:39 53.07332 10.52455 24698 ft 339 kts 320°
2026-05-08 06:39 53.09161 10.50011 24309 ft 336 kts 320°
2026-05-08 06:39 53.10977 10.47578 23923 ft 334 kts 319°
2026-05-08 06:39 53.12779 10.45159 23548 ft 333 kts 320°
2026-05-08 06:40 53.14576 10.42745 23155 ft 331 kts 320°
2026-05-08 06:40 53.16360 10.40349 22768 ft 329 kts 320°
2026-05-08 06:40 53.18136 10.37966 22374 ft 327 kts 320°
2026-05-08 06:40 53.19890 10.35566 21881 ft 326 kts 315°
2026-05-08 06:41 53.21292 10.32580 20995 ft 327 kts 295°
2026-05-08 06:41 53.22151 10.29102 20118 ft 322 kts 290°
2026-05-08 06:41 53.22942 10.25623 19275 ft 319 kts 290°
2026-05-08 06:41 53.23711 10.22220 18440 ft 315 kts 290°
2026-05-08 06:42 53.24479 10.18815 17604 ft 312 kts 290°
2026-05-08 06:42 53.25235 10.15446 16777 ft 308 kts 290°
2026-05-08 06:42 53.25980 10.12111 15960 ft 305 kts 290°
2026-05-08 06:42 53.26717 10.08808 15151 ft 302 kts 290°
2026-05-08 06:43 53.27449 10.05544 14349 ft 299 kts 290°
2026-05-08 06:43 53.28175 10.02311 13557 ft 296 kts 290°
2026-05-08 06:43 53.28893 9.99108 12762 ft 293 kts 290°
2026-05-08 06:43 53.29599 9.95934 11997 ft 290 kts 290°
2026-05-08 06:44 53.30299 9.92789 11227 ft 287 kts 290°
2026-05-08 06:44 53.30995 9.89662 10459 ft 285 kts 290°
2026-05-08 06:44 53.31680 9.86581 9871 ft 280 kts 291°
2026-05-08 06:44 53.32356 9.83516 9466 ft 281 kts 291°
2026-05-08 06:45 53.33028 9.80462 9090 ft 280 kts 291°
2026-05-08 06:45 53.33702 9.77403 8715 ft 280 kts 291°
2026-05-08 06:45 53.34376 9.74344 8343 ft 279 kts 291°
2026-05-08 06:45 53.35047 9.71293 7965 ft 280 kts 291°
2026-05-08 06:46 53.35720 9.68221 7567 ft 281 kts 292°
2026-05-08 06:46 53.36499 9.65201 7053 ft 284 kts 303°
2026-05-08 06:46 53.37777 9.62727 6573 ft 279 kts 324°
2026-05-08 06:46 53.39422 9.61123 5938 ft 272 kts 343°
2026-05-08 06:47 53.41219 9.60587 5679 ft 252 kts
2026-05-08 06:47 53.42886 9.60994 5501 ft 237 kts 20°
2026-05-08 06:47 53.44358 9.62095 5265 ft 228 kts 35°
2026-05-08 06:47 53.45550 9.63734 5085 ft 216 kts 48°
2026-05-08 06:48 53.46517 9.65644 4717 ft 214 kts 52°
2026-05-08 06:48 53.47467 9.67538 4385 ft 210 kts 52°
2026-05-08 06:48 53.48396 9.69398 4105 ft 205 kts 52°
2026-05-08 06:48 53.49293 9.71195 3876 ft 195 kts 52°
2026-05-08 06:49 53.50143 9.72875 3615 ft 185 kts 52°
2026-05-08 06:49 53.50954 9.74516 3306 ft 180 kts 52°
2026-05-08 06:49 53.51735 9.76098 3124 ft 171 kts 52°
2026-05-08 06:49 53.52486 9.77598 2901 ft 165 kts 52°
2026-05-08 06:50 53.53232 9.79086 2723 ft 168 kts 52°
2026-05-08 06:50 53.53996 9.80593 2554 ft 171 kts 52°
2026-05-08 06:50 53.54756 9.82132 2317 ft 169 kts 52°
2026-05-08 06:50 53.55515 9.83607 2085 ft 164 kts 51°
2026-05-08 06:51 53.56226 9.85065 1898 ft 157 kts 53°
2026-05-08 06:51 53.56882 9.86477 1655 ft 149 kts 53°
2026-05-08 06:51 53.57538 9.87751 1428 ft 140 kts 49°
2026-05-08 06:51 53.58171 9.88952 1260 ft 136 kts 50°
2026-05-08 06:52 53.58781 9.90179 1082 ft 138 kts 53°
2026-05-08 06:52 53.59382 9.91437 912 ft 137 kts 53°
2026-05-08 06:52 53.59992 9.92668 677 ft 136 kts 52°
2026-05-08 06:52 53.60602 9.93871 511 ft 133 kts 52°
2026-05-08 06:53 53.61196 9.95085 331 ft 135 kts 53°
2026-05-08 06:53 53.61791 9.96289 155 ft 133 kts 52°
2026-05-08 06:53 53.62379 9.97478 43 ft 124 kts 51°
2026-05-08 06:53 53.62837 9.98417 44 ft 82 kts 52°
2026-05-08 06:54 53.63078 9.98907 46 ft 16 kts 50°
2026-05-08 06:54 53.63163 9.99077 47 ft 24 kts 50°
2026-05-08 06:54 53.63296 9.99347 47 ft 35 kts 51°
2026-05-08 06:54 53.63441 9.99644 48 ft 23 kts 50°
2026-05-08 06:55 53.63541 9.99846 50 ft 22 kts 50°
2026-05-08 06:55 53.63557 10.00000 52 ft 15 kts 140°
2026-05-08 06:55 53.63493 10.00099 49 ft 7 kts 141°
2026-05-08 06:55 53.63418 10.00156 49 ft 17 kts 172°
2026-05-08 06:56 53.63369 10.00175 49 ft 2 kts 105°
2026-05-08 06:56 53.63369 10.00253 49 ft 10 kts 88°
2026-05-08 06:56 53.63372 10.00340 49 ft 0 kts 87°